| time (UTC) | temp C | wind direction | speed KPH | gust KPH | rain 1hr cm | rain 24hr cm | rain mn cm | humidity % | barometer mb |
| 20260503200225 | 16 | 223 | 3.2 | 19.3 | 0.00 | 0.00 | 0.00 | 43 | 1017.3 |
| 20260503195732 | 16 | 212 | 11.3 | 19.3 | 0.00 | 0.00 | 0.00 | 41 | 1017.6 |
| 20260503195245 | 16 | 234 | 6.4 | 16.1 | 0.00 | 0.00 | 0.00 | 45 | 1017.6 |
| 20260503194738 | 16 | 194 | 6.4 | 17.7 | 0.00 | 0.00 | 0.00 | 40 | 1017.7 |
| 20260503194234 | 16 | 243 | 6.4 | 17.7 | 0.00 | 0.00 | 0.00 | 42 | 1017.9 |
| 20260503193726 | 16 | 217 | 6.4 | 24.1 | 0.00 | 0.00 | 0.00 | 44 | 1018.1 |
| 20260503193220 | 16 | 309 | 9.7 | 24.1 | 0.00 | 0.00 | 0.00 | 42 | 1018.1 |
| 20260503192713 | 16 | 236 | 6.4 | 29.0 | 0.00 | 0.00 | 0.00 | 43 | 1018.3 |
| 20260503192226 | 16 | 233 | 12.9 | 29.0 | 0.00 | 0.00 | 0.00 | 42 | 1018.4 |
| 20260503191738 | 16 | 275 | 8.0 | 17.7 | 0.00 | 0.00 | 0.00 | 46 | 1018.3 |
| 20260503191229 | 16 | 233 | 8.0 | 20.9 | 0.00 | 0.00 | 0.00 | 43 | 1018.4 |
| 20260503190722 | 16 | 264 | 6.4 | 20.9 | 0.00 | 0.00 | 0.00 | 43 | 1018.4 |
| 20260503190214 | 16 | 259 | 8.0 | 20.9 | 0.00 | 0.00 | 0.00 | 42 | 1018.5 |
| 20260503185725 | 16 | 285 | 8.0 | 19.3 | 0.00 | 0.00 | 0.00 | 44 | 1018.7 |
| 20260503185218 | 16 | 274 | 6.4 | 19.3 | 0.00 | 0.00 | 0.00 | 47 | 1018.8 |
| 20260503184730 | 16 | 176 | 4.8 | 14.5 | 0.00 | 0.00 | 0.00 | 44 | 1018.9 |
| 20260503184243 | 16 | 231 | 4.8 | 17.7 | 0.00 | 0.00 | 0.00 | 44 | 1018.9 |
| 20260503183734 | 16 | 280 | 9.7 | 17.7 | 0.00 | 0.00 | 0.00 | 43 | 1018.9 |
| 20260503183226 | 16 | 186 | 6.4 | 17.7 | 0.00 | 0.00 | 0.00 | 43 | 1019.0 |
| 20260503182739 | 16 | 207 | 6.4 | 19.3 | 0.00 | 0.00 | 0.00 | 44 | 1019.0 |
| 20260503182230 | 16 | 226 | 4.8 | 19.3 | 0.00 | 0.00 | 0.00 | 47 | 1019.0 |
| 20260503181723 | 16 | 180 | 8.0 | 17.7 | 0.00 | 0.00 | 0.00 | 48 | 1019.1 |
| 20260503181236 | 16 | 193 | 8.0 | 16.1 | 0.00 | 0.00 | 0.00 | 45 | 1019.1 |
| 20260503180728 | 16 | 190 | 8.0 | 17.7 | 0.00 | 0.00 | 0.00 | 42 | 1019.1 |
| 20260503180224 | 16 | 188 | 9.7 | 17.7 | 0.00 | 0.00 | 0.00 | 47 | 1019.1 |
| 20260503175729 | 16 | 251 | 3.2 | 14.5 | 0.00 | 0.00 | 0.00 | 46 | 1019.3 |
| 20260503175222 | 15 | 262 | 6.4 | 16.1 | 0.00 | 0.00 | 0.00 | 46 | 1019.4 |
| 20260503174734 | 15 | 237 | 6.4 | 20.9 | 0.00 | 0.00 | 0.00 | 44 | 1019.4 |
| 20260503174226 | 15 | 219 | 4.8 | 20.9 | 0.00 | 0.00 | 0.00 | 45 | 1019.6 |
| 20260503173739 | 15 | 213 | 8.0 | 20.9 | 0.00 | 0.00 | 0.00 | 44 | 1019.6 |
| 20260503173229 | 15 | 251 | 6.4 | 16.1 | 0.00 | 0.00 | 0.00 | 42 | 1019.7 |
| 20260503172741 | 15 | 188 | 9.7 | 20.9 | 0.00 | 0.00 | 0.00 | 44 | 1019.9 |
| 20260503172213 | 15 | 234 | 9.7 | 20.9 | 0.00 | 0.00 | 0.00 | 44 | 1020.0 |
| 20260503171726 | 15 | 266 | 3.2 | 14.5 | 0.00 | 0.00 | 0.00 | 43 | 1019.9 |
| 20260503171223 | 15 | 240 | 6.4 | 24.1 | 0.00 | 0.00 | 0.00 | 47 | 1020.1 |
| 20260503170715 | 15 | 234 | 11.3 | 24.1 | 0.00 | 0.00 | 0.00 | 42 | 1020.4 |
| 20260503170228 | 15 | 168 | 4.8 | 14.5 | 0.00 | 0.00 | 0.00 | 46 | 1020.4 |
| 20260503150724 | 13 | 242 | 9.7 | 17.7 | 0.00 | 0.00 | 0.00 | 52 | 1021.7 |
| 20260503150214 | 12 | 221 | 8.0 | 12.9 | 0.00 | 0.00 | 0.00 | 53 | 1021.5 |
| 20260503140217 | 11 | 227 | 6.4 | 14.5 | 0.00 | 0.00 | 0.00 | 58 | 1021.6 |
| 20260503131231 | 7 | 137 | 4.8 | 11.3 | 0.00 | 0.00 | 0.00 | 73 | 1021.6 |
| 20260503130725 | 7 | 238 | 4.8 | 9.7 | 0.00 | 0.00 | 0.00 | 72 | 1021.5 |
| 20260503130218 | 7 | 240 | 4.8 | 9.7 | 0.00 | 0.00 | 0.00 | 73 | 1021.6 |
| 20260503120220 | 3 | 197 | 3.2 | 4.8 | 0.00 | 0.00 | 0.00 | 81 | 1021.4 |
| 20260503110726 | 1 | 205 | 3.2 | 4.8 | 0.00 | 0.00 | 0.00 | 85 | 1020.9 |
| 20260503110239 | 1 | 203 | 3.2 | 4.8 | 0.00 | 0.00 | 0.00 | 86 | 1020.9 |
| 20260503100214 | 0 | 195 | 4.8 | 6.4 | 0.00 | 0.00 | 0.00 | 90 | 1020.4 |
| 20260503090216 | 0 | 187 | 3.2 | 4.8 | 0.00 | 0.00 | 0.00 | 91 | 1020.4 |
| 20260503081226 | 0 | 192 | 3.2 | 3.2 | 0.00 | 0.00 | 0.00 | 91 | 1020.1 |
| 20260503080719 | 0 | 192 | 1.6 | 3.2 | 0.00 | 0.00 | 0.00 | 91 | 1020.0 |
| 20260503080213 | 1 | 192 | 1.6 | 3.2 | 0.00 | 0.00 | 0.00 | 90 | 1020.0 |
| 20260503072726 | 1 | 203 | 0.0 | 1.6 | 0.00 | 0.00 | 0.00 | 88 | 1019.9 |
| 20260503072219 | 1 | 203 | 0.0 | 3.2 | 0.00 | 0.00 | 0.00 | 88 | 1019.9 |
| 20260503071713 | 1 | 203 | 1.6 | 3.2 | 0.00 | 0.00 | 0.00 | 88 | 1019.9 |
| 20260503071227 | 1 | 203 | 1.6 | 3.2 | 0.00 | 0.00 | 0.00 | 87 | 1019.9 |
| 20260503070720 | 1 | 204 | 1.6 | 1.6 | 0.00 | 0.00 | 0.00 | 88 | 1019.9 |
| 20260503070234 | 1 | 204 | 0.0 | 1.6 | 0.00 | 0.00 | 0.00 | 88 | 1019.9 |
| 20260503060218 | 2 | 209 | 1.6 | 1.6 | 0.00 | 0.00 | 0.00 | 85 | 1020.3 |
| 20260503054713 | 2 | 196 | 1.6 | 3.2 | 0.00 | 0.00 | 0.00 | 84 | 1020.2 |
| 20260503054228 | 2 | 206 | 0.0 | 0.0 | 0.00 | 0.00 | 0.00 | 85 | 1020.3 |
| 20260503053725 | 2 | 206 | 0.0 | 1.6 | 0.00 | 0.00 | 0.00 | 85 | 1020.3 |
| 20260503053218 | 2 | 206 | 0.0 | 3.2 | 0.00 | 0.00 | 0.00 | 84 | 1020.4 |
| 20260503052752 | 2 | 206 | 1.6 | 3.2 | 0.00 | 0.00 | 0.00 | 83 | 1020.3 |
| 20260503052244 | 2 | 210 | 1.6 | 4.8 | 0.00 | 0.00 | 0.00 | 81 | 1020.4 |
| 20260503051717 | 3 | 228 | 1.6 | 4.8 | 0.00 | 0.00 | 0.00 | 80 | 1020.4 |
| 20260503051231 | 3 | 208 | 3.2 | 3.2 | 0.00 | 0.00 | 0.00 | 78 | 1020.4 |
| 20260503050725 | 3 | 212 | 1.6 | 1.6 | 0.00 | 0.00 | 0.00 | 77 | 1020.4 |
| 20260503050219 | 3 | 276 | 0.0 | 0.0 | 0.00 | 0.00 | 0.00 | 75 | 1020.4 |
| 20260503045726 | 3 | 290 | 0.0 | 0.0 | 0.00 | 0.00 | 0.00 | 75 | 1020.4 |
| 20260503045223 | 3 | 290 | 0.0 | 0.0 | 0.00 | 0.00 | 0.00 | 73 | 1020.5 |
| 20260503044717 | 4 | 354 | 0.0 | 0.0 | 0.00 | 0.00 | 0.00 | 73 | 1020.5 |
| 20260503044231 | 4 | 354 | 0.0 | 0.0 | 0.00 | 0.00 | 0.00 | 72 | 1020.5 |
| 20260503043725 | 3 | 354 | 0.0 | 0.0 | 0.00 | 0.00 | 0.00 | 72 | 1020.5 |
| 20260503043218 | 3 | 354 | 0.0 | 0.0 | 0.00 | 0.00 | 0.00 | 73 | 1020.6 |
| 20260503042732 | 3 | 354 | 0.0 | 0.0 | 0.00 | 0.00 | 0.00 | 73 | 1020.5 |
| 20260503042226 | 3 | 354 | 0.0 | 0.0 | 0.00 | 0.00 | 0.00 | 73 | 1020.5 |
| 20260503041720 | 3 | 354 | 0.0 | 0.0 | 0.00 | 0.00 | 0.00 | 71 | 1020.5 |
| 20260503041218 | 3 | 354 | 0.0 | 0.0 | 0.00 | 0.00 | 0.00 | 71 | 1020.5 |
| 20260503040731 | 3 | 354 | 0.0 | 0.0 | 0.00 | 0.00 | 0.00 | 72 | 1020.5 |
| 20260503040225 | 3 | 354 | 0.0 | 0.0 | 0.00 | 0.00 | 0.00 | 71 | 1020.5 |
| 20260503035729 | 3 | 354 | 0.0 | 0.0 | 0.00 | 0.00 | 0.00 | 71 | 1020.5 |
| 20260503035222 | 4 | 354 | 0.0 | 0.0 | 0.00 | 0.00 | 0.00 | 71 | 1020.4 |
| 20260503034716 | 4 | 354 | 0.0 | 0.0 | 0.00 | 0.00 | 0.00 | 70 | 1020.5 |
| 20260503034230 | 5 | 354 | 0.0 | 0.0 | 0.00 | 0.00 | 0.00 | 71 | 1020.5 |
| 20260503033723 | 5 | 354 | 0.0 | 0.0 | 0.00 | 0.00 | 0.00 | 69 | 1020.5 |
| 20260503033222 | 5 | 354 | 0.0 | 0.0 | 0.00 | 0.00 | 0.00 | 68 | 1020.5 |
| 20260503032715 | 5 | 354 | 0.0 | 0.0 | 0.00 | 0.00 | 0.00 | 68 | 1020.5 |
| 20260503032249 | 5 | 354 | 0.0 | 0.0 | 0.00 | 0.00 | 0.00 | 67 | 1020.5 |
| 20260503031741 | 5 | 354 | 0.0 | 0.0 | 0.00 | 0.00 | 0.00 | 66 | 1020.5 |
| 20260503031214 | 6 | 354 | 0.0 | 0.0 | 0.00 | 0.00 | 0.00 | 66 | 1020.5 |
| 20260503030728 | 6 | 354 | 0.0 | 0.0 | 0.00 | 0.00 | 0.00 | 66 | 1020.4 |
| 20260503030222 | 6 | 354 | 0.0 | 0.0 | 0.00 | 0.00 | 0.00 | 67 | 1020.4 |
| 20260503025729 | 5 | 354 | 0.0 | 1.6 | 0.00 | 0.00 | 0.00 | 68 | 1020.4 |
| 20260503025222 | 5 | 354 | 0.0 | 1.6 | 0.00 | 0.00 | 0.00 | 68 | 1020.4 |
| 20260503024720 | 5 | 354 | 0.0 | 1.6 | 0.00 | 0.00 | 0.00 | 69 | 1020.3 |
| 20260503024214 | 6 | 354 | 1.6 | 1.6 | 0.00 | 0.00 | 0.00 | 68 | 1020.2 |
| 20260503023727 | 6 | 354 | 1.6 | 1.6 | 0.00 | 0.00 | 0.00 | 68 | 1020.1 |
| 20260503023221 | 6 | 354 | 0.0 | 3.2 | 0.00 | 0.00 | 0.00 | 67 | 1019.9 |
| 20260503022715 | 6 | 354 | 1.6 | 4.8 | 0.00 | 0.00 | 0.00 | 67 | 1020.1 |
| 20260503022230 | 6 | 354 | 3.2 | 4.8 | 0.00 | 0.00 | 0.00 | 67 | 1020.0 |
| 20260503021723 | 6 | 352 | 3.2 | 6.4 | 0.00 | 0.00 | 0.00 | 66 | 1019.9 |
| 20260503021221 | 6 | 2 | 1.6 | 6.4 | 0.00 | 0.00 | 0.00 | 65 | 1019.8 |
| 20260503020715 | 6 | 1 | 3.2 | 6.4 | 0.00 | 0.00 | 0.00 | 64 | 1019.7 |
| 20260503020248 | 6 | 335 | 3.2 | 6.4 | 0.00 | 0.00 | 0.00 | 64 | 1019.6 |
| 20260503015714 | 6 | 1 | 3.2 | 4.8 | 0.00 | 0.00 | 0.00 | 64 | 1019.5 |
| 20260503015228 | 6 | 334 | 1.6 | 4.8 | 0.00 | 0.00 | 0.00 | 64 | 1019.5 |
| 20260503014722 | 7 | 350 | 3.2 | 4.8 | 0.00 | 0.00 | 0.00 | 63 | 1019.5 |
| 20260503014216 | 7 | 319 | 3.2 | 4.8 | 0.00 | 0.00 | 0.00 | 63 | 1019.4 |
| 20260503013730 | 7 | 347 | 3.2 | 4.8 | 0.00 | 0.00 | 0.00 | 62 | 1019.3 |
| 20260503013222 | 7 | 339 | 0.0 | 0.0 | 0.00 | 0.00 | 0.00 | 62 | 1019.3 |
| 20260503012719 | 7 | 339 | 0.0 | 0.0 | 0.00 | 0.00 | 0.00 | 61 | 1019.2 |
| 20260503012213 | 7 | 339 | 0.0 | 1.6 | 0.00 | 0.00 | 0.00 | 61 | 1019.1 |
| 20260503011745 | 7 | 339 | 0.0 | 4.8 | 0.00 | 0.00 | 0.00 | 61 | 1019.0 |
| 20260503011237 | 7 | 339 | 0.0 | 4.8 | 0.00 | 0.00 | 0.00 | 60 | 1019.0 |
| 20260503010729 | 7 | 345 | 0.0 | 6.4 | 0.00 | 0.00 | 0.00 | 60 | 1018.9 |
| 20260503010222 | 8 | 346 | 0.0 | 6.4 | 0.00 | 0.00 | 0.00 | 59 | 1019.0 |
| 20260503005729 | 8 | 331 | 3.2 | 9.7 | 0.00 | 0.00 | 0.00 | 58 | 1018.8 |
| 20260503005222 | 8 | 337 | 3.2 | 9.7 | 0.00 | 0.00 | 0.00 | 58 | 1018.8 |
| 20260503004716 | 8 | 329 | 1.6 | 6.4 | 0.00 | 0.00 | 0.00 | 58 | 1018.7 |
| 20260503004214 | 8 | 342 | 1.6 | 6.4 | 0.00 | 0.00 | 0.00 | 58 | 1018.7 |
| 20260503003748 | 8 | 340 | 1.6 | 8.0 | 0.00 | 0.00 | 0.00 | 57 | 1018.7 |
| 20260503003240 | 9 | 347 | 3.2 | 8.0 | 0.00 | 0.00 | 0.00 | 56 | 1018.5 |
| 20260503002732 | 9 | 340 | 1.6 | 11.3 | 0.00 | 0.00 | 0.00 | 55 | 1018.6 |
| 20260503002224 | 10 | 325 | 6.4 | 14.5 | 0.00 | 0.00 | 0.00 | 53 | 1018.4 |
| 20260503001717 | 10 | 327 | 3.2 | 14.5 | 0.00 | 0.00 | 0.00 | 54 | 1018.3 |
| 20260503001230 | 10 | 324 | 3.2 | 11.3 | 0.00 | 0.00 | 0.00 | 52 | 1018.3 |
| 20260503000724 | 10 | 13 | 6.4 | 11.3 | 0.00 | 0.00 | 0.00 | 52 | 1018.2 |
| 20260503000218 | 11 | 332 | 4.8 | 11.3 | 0.00 | 0.00 | 0.00 | 50 | 1018.2 |
| 20260502235743 | 11 | 332 | 3.2 | 9.7 | 0.00 | 0.00 | 0.00 | 51 | 1018.1 |
| 20260502235219 | 11 | 319 | 4.8 | 12.9 | 0.00 | 0.00 | 0.00 | 49 | 1018.1 |
| 20260502234732 | 11 | 321 | 6.4 | 12.9 | 0.00 | 0.00 | 0.00 | 49 | 1018.0 |
| 20260502234226 | 11 | 356 | 3.2 | 14.5 | 0.00 | 0.00 | 0.00 | 48 | 1017.9 |
| 20260502233718 | 11 | 298 | 8.0 | 16.1 | 0.00 | 0.00 | 0.00 | 49 | 1017.9 |
| 20260502233231 | 11 | 344 | 8.0 | 16.1 | 0.00 | 0.00 | 0.00 | 50 | 1018.0 |
| 20260502232724 | 11 | 326 | 8.0 | 14.5 | 0.00 | 0.00 | 0.00 | 50 | 1017.9 |
| 20260502232216 | 11 | 328 | 6.4 | 17.7 | 0.00 | 0.00 | 0.00 | 49 | 1018.0 |
| 20260502231713 | 11 | 317 | 8.0 | 20.9 | 0.00 | 0.00 | 0.00 | 47 | 1017.9 |
| 20260502231246 | 11 | 345 | 4.8 | 19.3 | 0.00 | 0.00 | 0.00 | 50 | 1017.9 |
| 20260502230229 | 11 | 1 | 9.7 | 16.1 | 0.00 | 0.00 | 0.00 | 50 | 1017.8 |
| 20260502225715 | 11 | 20 | 4.8 | 14.5 | 0.00 | 0.00 | 0.00 | 52 | 1017.9 |
| 20260502225228 | 11 | 316 | 3.2 | 11.3 | 0.00 | 0.00 | 0.00 | 52 | 1018.0 |
| 20260502224721 | 11 | 349 | 6.4 | 14.5 | 0.00 | 0.00 | 0.00 | 50 | 1017.9 |
| 20260502224214 | 11 | 304 | 8.0 | 14.5 | 0.00 | 0.00 | 0.00 | 51 | 1017.9 |
| 20260502223727 | 11 | 328 | 8.0 | 16.1 | 0.00 | 0.00 | 0.00 | 50 | 1017.9 |
| 20260502223221 | 11 | 1 | 8.0 | 16.1 | 0.00 | 0.00 | 0.00 | 49 | 1017.9 |
| 20260502222732 | 11 | 336 | 4.8 | 8.0 | 0.00 | 0.00 | 0.00 | 51 | 1017.9 |
| 20260502222226 | 11 | 347 | 4.8 | 12.9 | 0.00 | 0.00 | 0.00 | 51 | 1017.9 |
| 20260502221714 | 11 | 359 | 6.4 | 25.7 | 0.00 | 0.00 | 0.00 | 49 | 1017.9 |
| 20260502221226 | 11 | 338 | 9.7 | 25.7 | 0.00 | 0.00 | 0.00 | 48 | 1017.9 |
| 20260502220719 | 12 | 14 | 8.0 | 17.7 | 0.00 | 0.00 | 0.00 | 49 | 1017.7 |
| 20260502220231 | 12 | 285 | 6.4 | 14.5 | 0.00 | 0.00 | 0.00 | 51 | 1017.7 |
| 20260502215719 | 12 | 296 | 3.2 | 14.5 | 0.00 | 0.00 | 0.00 | 47 | 1017.7 |
| 20260502215216 | 12 | 339 | 9.7 | 14.5 | 0.00 | 0.00 | 0.00 | 48 | 1017.7 |
| 20260502214729 | 12 | 282 | 4.8 | 19.3 | 0.00 | 0.00 | 0.00 | 49 | 1017.6 |
| 20260502214221 | 12 | 293 | 6.4 | 19.3 | 0.00 | 0.00 | 0.00 | 49 | 1017.6 |
| 20260502213713 | 13 | 324 | 3.2 | 19.3 | 0.00 | 0.00 | 0.00 | 48 | 1017.5 |
| 20260502213226 | 12 | 267 | 6.4 | 19.3 | 0.00 | 0.00 | 0.00 | 51 | 1017.6 |
| 20260502212736 | 12 | 335 | 6.4 | 24.1 | 0.00 | 0.00 | 0.00 | 49 | 1017.7 |
| 20260502212247 | 11 | 342 | 6.4 | 24.1 | 0.00 | 0.00 | 0.00 | 51 | 1017.7 |
| 20260502211718 | 12 | 277 | 6.4 | 16.1 | 0.00 | 0.00 | 0.00 | 50 | 1017.8 |
| 20260502211231 | 12 | 292 | 3.2 | 19.3 | 0.00 | 0.00 | 0.00 | 52 | 1017.8 |
| 20260502210723 | 12 | 278 | 4.8 | 19.3 | 0.00 | 0.00 | 0.00 | 50 | 1017.7 |
| 20260502210218 | 12 | 350 | 6.4 | 16.1 | 0.00 | 0.00 | 0.00 | 50 | 1017.7 |
| 20260502205724 | 12 | 327 | 6.4 | 16.1 | 0.00 | 0.00 | 0.00 | 52 | 1017.8 |
| 20260502205215 | 12 | 309 | 8.0 | 17.7 | 0.00 | 0.00 | 0.00 | 50 | 1017.7 |
| 20260502204728 | 12 | 358 | 4.8 | 20.9 | 0.00 | 0.00 | 0.00 | 53 | 1017.8 |
| 20260502204221 | 11 | 317 | 9.7 | 20.9 | 0.00 | 0.00 | 0.00 | 51 | 1017.7 |
| 20260502203715 | 12 | 276 | 6.4 | 14.5 | 0.00 | 0.00 | 0.00 | 53 | 1017.8 |
| 20260502203229 | 11 | 287 | 4.8 | 17.7 | 0.00 | 0.00 | 0.00 | 53 | 1017.7 |
| 20260502202723 | 11 | 259 | 6.4 | 17.7 | 0.00 | 0.00 | 0.00 | 53 | 1017.9 |
| 20260502202221 | 11 | 288 | 4.8 | 11.3 | 0.00 | 0.00 | 0.00 | 54 | 1018.0 |
| 20260502201715 | 11 | 321 | 3.2 | 12.9 | 0.00 | 0.00 | 0.00 | 56 | 1018.0 |
| 20260502201229 | 11 | 327 | 3.2 | 19.3 | 0.00 | 0.00 | 0.00 | 57 | 1018.0 |
| 20260502200721 | 11 | 336 | 11.3 | 19.3 | 0.00 | 0.00 | 0.00 | 53 | 1018.1 |